Regional Weather Roundup
Issued by NWS Pendleton, OR

Home | Current Version | Previous Version | Text Only | Print | Product List | Glossary On
Versions: 1 2 3 4 5 6 7 8 9 10 11 12 13 14 15 16 17 18 19 20 21 22 23 24 25 26 27 28 29 30 31 32 33 34 35 36 37 38 39 40 41 42 43 44 45 46 47 48 49 50
000
ASUS46 KPDT 040825
RWRPDT
PENDLETON REGIONAL WEATHER ROUNDUP
NATIONAL WEATHER SERVICE PENDLETON OREGON
100 AM PDT SAT JUL 4 2015

NOTE: FAIR INDICATES FEW OR NO CLOUDS BELOW 12,000 FEET WITH NO
SIGNIFICANT WEATHER AND/OR OBSTRUCTIONS TO VISIBILITY.

# INDICATES UNOFFICIAL STATION AND DATA

WAZ520-040910-
EAST SLOPES OF WASHINGTON CASCADES

CITY            SKY/WX      TMP DP  RH  WIND    PRES   REMARKS
#BULLFROG 2SW   N/A         68  49  51  CALM    27.51S
#BUMPING DAM    N/A         62  N/A N/A W7      N/A
#CLE ELUM HS    N/A         74  50  43  W7      29.83S
#CLE ELUM LAKE  N/A         68  48  49  CALM    29.72S
#CLIFFDEL 2NW   N/A         69  50  51  CALM    N/A
#GLENWOOD       N/A         56  51  83  CALM    29.75R
#MANASTASH CYN  N/A         73  42  33  CALM    29.87S
#NELSON         N/A         73  53  49  CALM    29.76S
#NELSON 3SW     N/A         72  45  38  CALM    29.92S
#NILE           N/A         67  51  56  CALM    29.06S
#RONALD 2NW     N/A         71  49  46  N2      29.82S
#SNOWDEN        N/A         68  39  35  CALM    N/A
#TEANAWAY 4NE   N/A         69  53  57  W3      N/A
#TROUT LAKE 1NE N/A         75  52  45  CALM    29.73F
$$

WAZ521-040910-
SIMCOE HIGHLANDS

CITY            SKY/WX      TMP DP  RH  WIND    PRES   REMARKS
#BICKLETON HS   N/A         78  34  20  N8      N/A
#GOLDENDALE     N/A         74  50  43  SW7     N/A
#GOLDENDALE 5WNWN/A         76  54  46  W13     29.70S
#GOODNOE HILLS  N/A         78  53  42  W3      N/A
#LYLE 6NE       N/A         76  55  48  CALM    29.71S
$$

WAZ026-040910-
KITTITAS VALLEY

CITY            SKY/WX      TMP DP  RH  WIND    PRES   REMARKS
ELLENSBURG AP   CLEAR       78  50  38  NW22    29.81F
YTC-OPS AREA    N/A         72  44  37  W32G41  29.82S
#ELLENSBURG CWU N/A         75  50  41  NW12    29.65F
#ELLENSBURG 3NE N/A         75  53  46  N8      29.82F
#ELLENSBURG 1E  N/A         76  47  36  CALM    N/A
#KITTITAS 3S    N/A         68  51  55  CALM    29.69S
#THORP 6N       N/A         73  50  44  W17G33  29.71F
$$

WAZ027-040910-
YAKIMA VALLEY

CITY            SKY/WX      TMP DP  RH  WIND    PRES   REMARKS
SUNNYSIDE AP    CLEAR       65  55  70  E6      29.73S
YAKIMA AIRPORT  CLEAR       83  47  28  NW13    29.78S
#DONALD 2NE     N/A         82  14   8  W3      28.59F
#GRANDVIEW      N/A         78  45  31  CALM    29.69S
#MABTON         N/A         81  50  34  SW6     29.72S
#MOXEE 2E       N/A         79  26  14  W3      29.71R
#NACHES 2SW     N/A         77  51  40  W13G24  29.82S
#OUTLOOK DOT    N/A         N/A N/A N/A NW9     N/A
#SELAH 8E       N/A         73  40  30  W1      N/A
#TERRACE HTS    N/A         82  47  29  N7      29.64F
#TOPPENISH      N/A         84  48  29  W8      29.60S
#WAPATO 4NE     N/A         82  14   8  W3      28.59F
#WEST VALLEY    N/A         80  47  31  N1      29.67S
#W YAKIMA       N/A         80  50  35  NW3     29.68F
#WHITE SWAN 5E  N/A         72  55  55  CALM    29.69S
#WILEY CITY 3W  N/A         70  45  41  CALM    29.75S
$$

WAZ028-040910-
LOWER COLUMBIA BASIN...WASHINGTON

CITY            SKY/WX      TMP DP  RH  WIND    PRES   REMARKS
PASCO           CLEAR       79  51  38  CALM    29.71R
RICHLAND AWOS   CLEAR       81  48  32  MISG    29.70S
#BASIN CITY 5SW N/A         79  52  39  NW7     29.70S
#BENTON CITY    N/A         82  48  31  SW5     29.58R
#CONNELL 5N     N/A         75  52  45  W2      29.64S
#CONNELL 5NW    N/A         74  54  50  W6      29.62S
#ELTOPIA 6NW    N/A         76  54  46  W7      28.70S
#KAHLOTUS       N/A         78  45  31  N1      29.65R
#KENNEWICK      N/A         68  49  51  CALM    27.51S
#KENNEWICK 3S   N/A         80  55  42  S3      29.67R
#PATERSON       N/A         79  55  44  CALM    29.68R
#PROSSER        N/A         85  39  20  W8      29.67R
#SAGEMOOR 2W    N/A         80  52  38  W5      29.50S
#TOUCHET 2S     N/A         83  51  33  SW15    29.66R
#WEST PASCO     N/A         82  55  40  W1      29.70R
$$

WAZ029-040910-
FOOTHILLS OF THE BLUES...WASHINGTON

CITY            SKY/WX      TMP DP  RH  WIND    PRES   REMARKS
WALLA WALLA AP  CLEAR       83  47  28  S14     29.78R
#DAYTON SCHOOL  N/A         71  36  28  CALM    29.80R
#LOWDEN 2SE     N/A         70  54  57  E1      29.70R
#PLEASANT VIEW 1N/A         77  35  22  SW8     29.67S
#PRESCOTT       N/A         63  45  52  CALM    29.67R
#SUDBURY        N/A         63  N/A N/A CALM    N/A
#WAITSBURG 5S   N/A         78  49  36  S5      29.77R
#WAITSBURG 8N   N/A         75  21  13  S6      29.59R
#WALLA WALLA U  N/A         82  52  35  CALM    29.69
#WHITMAN MISSIONN/A         71  56  59  CALM    29.71R
$$

WAZ030-040910-
BLUE MOUNTAINS...WASHINGTON

CITY            SKY/WX      TMP DP  RH  WIND    PRES   REMARKS
#DIXIE 5SE      N/A         87  45  23  W1      29.83S
$$

ORZ009-041-WAZ024-040910-
COLUMBIA RIVER GORGE

CITY            SKY/WX      TMP DP  RH  WIND    PRES   REMARKS
HOOD RIVER AP   CLEAR       75  54  48  NW8     29.82S
THE DALLES AP   CLEAR       85  45  25  W20G26  29.75S
#ARLINGTON AIRPON/A         79  51  38  SW5     31.49F
#ARLINGTON HS   N/A         82  50  33  CALM    29.60R
#CELILO DOT     N/A         85  56  37  SW8     N/A
#MOSIER 1S      N/A         76  40  27  NW3     29.79S
#MURDOCK        N/A         83  56  40  W13G25  29.75R

$$

ORZ510-040910-
NORTH CENTRAL OREGON

CITY            SKY/WX      TMP DP  RH  WIND    PRES   REMARKS
#CHENOWITH 1W   N/A         73  51  46  W28     N/A
#COW CYN RST AREN/A         74  N/A N/A SE3     N/A
#DUFUR 9E       N/A         76  43  31  W7      29.76S
#GRASS VALLEY 1SN/A         69  47  45  SW9     29.74R
#KENT DOT       N/A         69  45  42  SW8     N/A
#MAUPIN SCHOOL  N/A         76  46  34  W6      29.83R
#MORO SCHOOL    N/A         79  47  32  W12     29.84S
#SHANIKO 5WSW   N/A         69  42  37  SE3     N/A
#SHANIKO 4NW    N/A         71  43  36  SW7     29.97S
#TYGH VALLEY 2NEN/A         69  44  40  CALM    29.74R
#WAPANITIA AIRPON/A         75  50  41  W3      29.74R
#WASCO DOT      N/A         78  51  39  W8      N/A
#WASCO AIRPORT  N/A         77  42  29  W9      N/A
#WASCO 5NE      N/A         76  49  39  CALM    29.68F
$$

ORZ511-040910-
CENTRAL OREGON

CITY            SKY/WX      TMP DP  RH  WIND    PRES   REMARKS
BEND AIRPORT    N/A         N/A N/A N/A MISG    N/A
MADRAS AIRPORT  PTCLDY      64  46  52  SE5     29.94S
PRINEVILLE AP   PTCLDY      63  39  41  CALM    29.96S
REDMOND AIRPORT PTCLDY      64  40  41  N3      29.96
#BEND 1SW       N/A         63  48  58  CALM    N/A
#BEND-AWBREY    N/A         70  48  46  SW3     29.74S
#BEND-KIM LN    N/A         68  50  53  S2      29.96S
#CROOKED RVR RANN/A         72  47  41  CALM    29.74R
#CULVER         N/A         71  46  41  E1      29.89S
#LAKE BILLY CHINN/A         70  11  10  CALM    29.97R
#POWELL BUTTE 3EN/A         65  42  43  CALM    N/A
#POWELL BUTTE   N/A         71  41  34  SW2     29.61F
#PRINEVILLE 3N  N/A         60  48  64  E3      29.73R
#WARM SPRINGS   N/A         74  48  40  CALM    29.84S

$$


ORZ509-040910-
EAST SLOPES OF OREGON CASCADES

CITY            SKY/WX      TMP DP  RH  WIND    PRES   REMARKS
#CAMP SHERMAN   N/A         67  43  42  CALM    29.73F
#LA PINE 4NW    N/A         59  44  57  CALM    29.81S
#SISTERS AIRPOR N/A         64  49  58  N1      30.17S
#SISTERS ODOT   N/A         60  N/A N/A CALM    N/A
#SISTERS 1NW    N/A         64  41  43  N2      N/A
#SISTERS 3N     N/A         72  38  29  CALM    29.99S
#SUNRIVER       N/A         63  48  58  CALM    29.65F
#TUMALO 3W      N/A         68  46  45  CALM    29.63S
#WANOGA BUTTE D N/A         71  24  17  CALM    N/A

$$

ORZ044-040910-
LOWER COLUMBIA BASIN...OREGON

CITY            SKY/WX      TMP DP  RH  WIND    PRES   REMARKS
HERMISTON       CLEAR       83  44  25  SW14    29.73R
#BOARDMAN SCHOOLN/A         82  48  31  SW7     29.73R
#BOARDMAN 8SW   N/A         78  52  40  SW7     29.70R
#ECHO 8SW       N/A         84  46  27  SW16    29.75R
#IONE SCHOOL    N/A         82  44  26  SW2     29.77S
#IRRIGON 4NW    N/A         81  52  37  SW12    N/A
#UMATILLA SCHOOLN/A         79  63  58  N1      29.77F
#UMATILLA       N/A         80  53  39  CALM    29.65R
$$

ORZ507-040910-
NORTHERN FOOTHILLS OF THE BLUES

CITY            SKY/WX      TMP DP  RH  WIND    PRES   REMARKS
PENDLETON AIRPT CLEAR       79  46  31  VRB3    29.80R
#ADAMS 3WNW     N/A         70  45  41  CALM    29.70R
#ATHENA         N/A         70  45  41  CALM    29.73R
#CAYUSE         N/A         74  47  38  E5      29.69R
#HELIX SCHOOL   N/A         76  49  39  CALM    29.70R
#HELIX 3N       N/A         75  47  37  S8      29.80S
#HOLDMAN 6E     N/A         78  46  32  N8      29.51S
#M-F GROVE ELEM N/A         80  43  27  SE2     29.78S
#M-FREEWATER 5SEN/A         74  49  41  NE1     29.80R
#PENDLETON DNTN N/A         75  44  33  CALM    29.75F
#PDT AQUATIC CTRN/A         77  43  30  VRB6    29.83S
#PDT SUNRIDGE   N/A         80  49  34  CALM    29.80R
#PENDLETON 7NW  N/A         80  51  36  CALM    27.36S
#PILOT ROCK     N/A         77  44  31  SE1     29.85S
#TUTUILLA       N/A         72  48  43  CALM    29.74S
#UMAPINE 2E     N/A         81  53  38  SW3     29.72R
#WESTON SCHOOL  N/A         73  43  34  W1      29.70S

$$

ORZ508-040910-
SOUTHERN FOOTHILLS OF THE BLUES

CITY            SKY/WX      TMP DP  RH  WIND    PRES   REMARKS
#AJAX           N/A         77  34  21  S2      29.82R
#CONDON SCHOOL  N/A         71  39  31  S1      29.88S
#CONDON 5W      N/A         72  37  28  W6      29.91S
#FOSSIL SCHOOL  N/A         65  39  38  CALM    29.88S
#HEPPNER EOC    N/A         75  42  31  SW3     29.66S
#HEPPNER 4NE    N/A         72  41  33  S2      29.70S
#LEXINGTON 2SE  N/A         77  42  29  CALM    29.80S
#RUGGS 5NE      N/A         69  39  33  CALM    30.07S
#RUGGS 2SW      N/A         69  39  33  CALM    29.73R

$$

ORZ502-503-040910-
BLUE MOUNTAINS

CITY            SKY/WX      TMP DP  RH  WIND    PRES   REMARKS
MEACHAM         PTCLDY      53  44  71  CALM    29.96S
#BATTLE MTN DOT N/A         66  51  58  CALM    N/A
#HEPPNER 15SE   N/A         63  43  48  SE1     29.91R
#LONG CREEK HS  N/A         56  37  49  CALM    29.93R
#N POWDER DOT   N/A         61  47  60  CALM    N/A
#PIKES PEAK     N/A         76  49  39  SW23    27.99S
#TOLLGATE       N/A         63  45  52  CALM    29.96F
#TROY SCHOOL    N/A         74  49  41  W1      29.56R
#UKIAH          N/A         54  45  71  CALM    29.80S
#WESTON 4E      N/A         73  46  38  CALM    29.64R
$$

ORZ505-040910-
JOHN DAY BASIN

CITY            SKY/WX      TMP DP  RH  WIND    PRES   REMARKS
JOHN DAY        PTCLDY      73  31  21  W7      29.97R
#JOHN DAY KJDY  N/A         64  53  67  E2      29.97R
#DAYVILLE SCHOOLN/A         75  31  20  CALM    29.87S
#MITCHELL       N/A         65  39  38  CALM    30.11S
#MONUMENT HS    N/A         70  36  29  CALM    29.89R
#MT. VERNON 5SE N/A         71  31  23  CALM    29.94R
#WINLOCK        N/A         66  37  34  CALM    30.02R
$$

ORZ506-040910-
OCHOCO AND JOHN DAY HIGHLANDS

CITY            SKY/WX      TMP DP  RH  WIND    PRES   REMARKS
#HORSE RIDGE DO N/A         59  41  51  SW1     N/A
#KEYES SMT DOT  N/A         69  32  25  W5      N/A
#PAULINA SCHOOL N/A         67  31  26  CALM    29.96S
#PRAIRIE CITY   N/A         58  47  67  CALM    29.91R
#SENECA         N/A         57  N/A N/A CALM    N/A
#SENECA 9NW     N/A         56  33  42  W1      29.72R
$$

ORZ049-040910-
GRANDE RONDE VALLEY

CITY            SKY/WX      TMP DP  RH  WIND    PRES   REMARKS
LA GRANDE       PTCLDY      64  37  37  CALM    29.88S
#COVE           N/A         66  46  48  NE1     29.91R
#ELGIN 3N       N/A         59  40  49  CALM    29.88R
#ELGIN 1E       N/A         61  45  56  CALM    N/A
#IMBLER SCHOOL  N/A         65  46  50  CALM    29.85R
#ISLAND CITY 4N N/A         63  53  70  CALM    29.87R
#LADD CYN DOT   N/A         71  43  36  SE15    N/A
#UNION 1S       N/A         63  45  52  CALM    29.63R
$$

ORZ050-040910-
WALLOWA COUNTY

CITY            SKY/WX      TMP DP  RH  WIND    PRES   REMARKS
JOSEPH AIRPORT  N/A         63  43  48  S6      29.98F
#IMNAHA SCHOOL  N/A         78  46  32  S3      29.82R
#IMNAHA 10S     N/A         76  51  42  SW3     30.01S
#JOSEPH 3N      N/A         58  46  64  CALM    29.98F
#JOSEPH 3W      N/A         66  39  37  SW3     29.85F
#LOSTINE        N/A         62  47  58  CALM    29.53S
#MT HOWARD 8000 N/A         62  33  34  N2      30.27F
#PROMISE 1S     N/A         65  41  41  CALM    29.80R
#WALLOWA SCHOOL N/A         60  50  69  CALM    29.88S



$$



USA.gov is the U.S. government's official web portal to all federal, state and local government web resources and services.